Regional Weather Roundup
Issued by NWS Memphis, TN

Home | Current Version | Previous Version | Text Only | Print | Product List | Glossary On
Versions: 1 2 3 4 5 6 7 8 9 10 11 12 13 14 15 16 17 18 19 20 21 22 23 24 25 26 27 28 29 30 31 32 33 34 35 36 37 38 39 40 41 42 43 44 45 46 47 48 49 50
000
ASUS44 KMEG 280110
RWRMEG
MEMPHIS CWA HOURLY WEATHER ROUNDUP
NATIONAL WEATHER SERVICE MEMPHIS TN
800 PM CDT WED MAY 27 2015

...WEST TENNESSEE...

CITY           SKY/WX    TMP DP  RH WIND       PRES   REMARKS
MEMPHIS INTL   MOCLDY    75  66  73 SE6       30.09S
NWS MEMPHIS      N/A     73 N/A N/A MISG        N/A
JACKSON        MOCLDY    72  67  84 SE3       30.12R
LEXINGTON      CLEAR     68  66  94 CALM      30.12S
DYERSBURG      MOCLDY    73  57  56 CALM      30.11R
PARIS          CLEAR     70  68  94 CALM      30.13R


...EASTERN ARKANSAS...

CITY           SKY/WX    TMP DP  RH WIND       PRES   REMARKS
JONESBORO      MOCLDY    74  66  76 S7        30.07S
WEST MEMPHIS   CLOUDY    72  69  90 S7        30.07F
BATESVILLE     CLEAR     79  66  65 SE3       30.05F
NEWPORT        PTCLDY    76  69  79 SE12      30.07F
WALNUT RIDGE   PTCLDY    75  66  73 SE9       30.06S
BLYTHEVILLE    CLOUDY    75  69  81 CALM      30.09S
SEARCY         CLEAR     78  70  76 E7        30.06F
STUTTGART      PTCLDY    75  68  78 SE9       30.06S
PINE BLUFF     MOCLDY    78  68  71 S8        30.05S
MONTICELLO     PTCLDY    76  72  87 SE3       30.07R


...NORTH MISSISSIPPI...

CITY           SKY/WX    TMP DP  RH WIND       PRES   REMARKS
TUPELO         LGT RAIN  69  66  90 E6        30.12S
OXFORD         CLOUDY    68  66  94 E5        30.12S
OLIVE BRANCH   MOCLDY    72  72 100 CALM      30.10S
TUNICA         CLOUDY    72  68  88 E3        30.10R
CLARKSDALE       N/A     73  73 100 CALM      30.09S
CORINTH        CLOUDY    70  66  88 SE3       30.13R
GREENWOOD      LGT RAIN  71  68  90 CALM      30.08S
COLUMBUS       LGT RAIN  70 N/A N/A E13       30.09F
STARKVILLE     FAIR      70  68  94 CALM      30.10R
GOLDEN TRIANGL MOCLDY    70  66  88 E5        30.07F


...SOUTHEAST MISSOURI...

CITY           SKY/WX    TMP DP  RH WIND       PRES   REMARKS
WEST PLAINS    CLOUDY    73  64  73 SE7       30.10R
POPLAR BLUFF   MOCLDY    76  68  76 S5        30.06S
CAPE GIRARDEAU MOCLDY    74  70  87 S5        30.07S


...NORTHWEST ALABAMA...

CITY           SKY/WX    TMP DP  RH WIND       PRES   REMARKS
MUSCLE SHOALS  TSTM      69  66  90 SE8       30.18R


...MIDDLE TENNESSEE...

CITY           SKY/WX    TMP DP  RH WIND       PRES   REMARKS
NASHVILLE      CLOUDY    70  68  93 SE3       30.15R
CLARKSVILLE    CLOUDY    71  67  87 CALM      30.14R
COLUMBIA       PTCLDY    68  68 100 CALM      30.14F


...WESTERN KENTUCKY...

CITY           SKY/WX    TMP DP  RH WIND       PRES   REMARKS
PADUCAH        CLOUDY    73  66  78 S3        30.09S
FORT CAMPBELL  CLOUDY    71  67  85 S5        30.14R


...CENTRAL ARKANSAS...

CITY           SKY/WX    TMP DP  RH WIND       PRES   REMARKS
LITTLE ROCK    PTCLDY    78  68  71 S5        30.04F


SKY/WX REPORTED AS FAIR MEANS FEW OR NO CLOUDS BELOW
12 THOUSAND FEET.



USA.gov is the U.S. government's official web portal to all federal, state and local government web resources and services.